Weather History for CXBK - October, 2013

Change the Weather History Date:

Tuesday, October 22, 2013

  Actual Average Record
Temperature  
Mean Temperature 44 °F -  
Max Temperature 61 °F - - ()
Min Temperature 27 °F - - ()
Degree Days  
Heating Degree Days 21    
Moisture  
Dew Point 32 °F    
Average Humidity 78    
Maximum Humidity 98    
Minimum Humidity 23    
Precipitation  
Precipitation 0.18 in - - ()
Sea Level Pressure  
Sea Level Pressure 29.91 in    
Wind  
Wind Speed 10 mph ()    
Max Wind Speed 28 mph    
Max Gust Speed 36 mph    
T = Trace of Precipitation, MM = Missing Value Source: Averaged Metar Reports

Daily Weather History Graph

Daily Weather History Graph

Search for Another Location

Airport or City:

Trip Planner

Search our weather history database for the weather conditions in past years. The results will help you decide how hot, cold, wet, or windy it might be!

Date:

Astronomy

Oct. 22, 2013 Rise Set
Actual Time 7:32 AM CST 5:52 PM CST
Civil Twilight 6:59 AM CST 6:25 PM CST
Nautical Twilight 6:21 AM CST 7:03 PM CST
Astronomical Twilight 5:44 AM CST 7:41 PM CST
Moon 8:19 PM CST (10/22) 11:19 AM CST (10/22)
Length of Visible Light 11h 26m
Length of Day
10h 19m
Waning Gibbous, 86% of the Moon is Illuminated
Oct 22
Waning Gibbous
Oct 26
Last Quarter
Nov 3
New
Nov 9
First Quarter
Nov 17
Full

Hourly Weather History & Observations

Time (CST) Temp. Windchill Dew Point Humidity Pressure Visibility Wind Dir Wind Speed Gust Speed Precip Events Conditions
12:00 AM 32 °F - 32 °F 98% 30.02 in - NE 3.5 mph - -  
5:00 AM 50.2 °F - 46.9 °F 89% - - NE 12.7 mph - 0.02 in   Unknown
6:00 AM 28 °F - 27 °F 95% 30.12 in - NNW 2.3 mph - -  
6:00 AM 43.7 °F 36.0 °F 34.9 °F 71% 29.57 in - West 17.3 mph 23.0 mph N/A   Unknown
7:00 AM 31.5 °F 20.5 °F 27.7 °F 86% 29.96 in - WNW 16.1 mph - N/A   Unknown
8:00 AM 47.8 °F - 46.8 °F 96% 29.59 in - NNW 9.2 mph - 0.02 in   Unknown
9:00 AM 36.5 °F 27.4 °F 28.8 °F 74% 30.01 in - West 15.0 mph - N/A   Unknown
10:00 AM 28.6 °F 16.8 °F 27.0 °F 94% 29.93 in - SE 16.1 mph - 0.02 in   Unknown
11:00 AM 28.8 °F 17.9 °F 27.7 °F 96% 29.93 in - SE 13.8 mph - 0.05 in   Unknown
12:00 PM 32 °F - 30 °F 88% 30.13 in - SE 2.3 mph - -  
12:00 PM 30.0 °F 19.1 °F 28.6 °F 94% - - SE 15.0 mph - 0.02 in   Unknown
1:00 PM 59.0 °F - 31.8 °F 36% 29.63 in - West 16.1 mph 21.9 mph N/A   Unknown
2:00 PM 50.2 °F - 35.4 °F 57% 29.69 in - NNW 27.6 mph 35.7 mph N/A   Unknown
3:00 PM 53.1 °F - 20.8 °F 28% 30.35 in - NNW 15.0 mph 20.7 mph N/A   Unknown
4:00 PM 61.3 °F - 23.4 °F 23% 29.72 in - West 20.7 mph 27.6 mph N/A   Unknown
5:00 PM 60.1 °F - 26.8 °F 28% 29.73 in - West 16.1 mph 24.2 mph N/A   Unknown
6:00 PM 34 °F - 33 °F 92% 30.07 in - ESE 4.6 mph - -  
6:00 PM 44.1 °F 38.6 °F 41.0 °F 89% 29.64 in - WNW 10.4 mph 19.6 mph 0.01 in   Unknown
7:00 PM 44.4 °F 37.2 °F 39.4 °F 82% 29.63 in - WNW 16.1 mph 23.0 mph N/A   Unknown
8:00 PM 33.3 °F 27.9 °F 31.8 °F 94% 30.06 in - East 5.8 mph - N/A   Unknown
9:00 PM 33.1 °F 28.7 °F 32.0 °F 96% 30.07 in - ESE 4.6 mph - 0.03 in   Unknown
10:00 PM 32.9 °F 28.5 °F 31.8 °F 96% 30.08 in - East 4.6 mph - 0.01 in   Unknown
11:00 PM 32.9 °F 29.8 °F 31.8 °F 96% 30.10 in - ENE 3.5 mph - N/A   Unknown